Location: Barjac
(44.3074°N, 4.3515°E)
Time: 08:30:03
(UTC+00:00)

Daily predictions for brighter satellites

Satellite Brightness Start Highest point End
(mag) Time Altitude Azimuth Time Altitude Azimuth Time Altitude Azimuth
USA 307 3.9 17:02:08 10° NW 17:06:00 32° NNE 17:09:51 10° E
H-2A R/B 2.5 17:02:50 10° N 17:06:56 62° WNW 17:10:58 10° SSW
Envisat 3.6 17:02:50 10° S 17:07:52 65° WSW 17:12:57 10° NNW
COSMO-SKYMED 1 3.6 17:05:01 10° NE 17:08:42 26° E 17:12:22 10° SSE
Cosmos 1300 2.6 17:05:56 10° S 17:09:42 66° E 17:13:30 10° NNE
SAR-Lupe-4 4.4 17:07:13 10° NE 17:10:25 30° E 17:13:36 10° SSE
USA 308 3.8 17:07:06 10° NW 17:11:01 33° NNE 17:14:54 10° E
Cosmos 1400 Rocket 3.3 17:07:30 10° SSE 17:11:22 42° E 17:15:14 10° NNE
Cosmos 1697 Rocket 3.7 17:08:16 10° SSE 17:12:46 25° ESE 17:17:17 10° NE
CZ-4B R/B 1.3 17:11:19 10° NNE 17:14:28 56° ESE 17:17:31 10° S
Cosmos 1825 Rocket 3.8 17:10:42 10° NNW 17:15:09 77° W 17:19:32 10° S
Cosmos 1825 4.1 17:14:34 10° NE 17:15:59 12° ENE 17:17:25 10° E
ERS-2 2.0 17:14:38 10° NNE 17:18:17 74° ESE 17:21:55 10° S
Helios 1A Rocket 4.0 17:15:05 10° ESE 17:18:25 25° ENE 17:21:46 10° NNE
YAOGAN 1 3.9 17:17:43 10° ESE 17:20:51 20° ENE 17:24:01 10° NNE
BREEZE-M TANK 3.4 17:10:53 10° W 17:21:37 82° N 17:24:59 12° E
Atlas Centaur 2 4.4 17:15:26 10° SW 17:22:00 28° S 17:28:53 10° ESE
NOAA 11 4.1 17:20:11 10° SSE 17:25:36 72° ENE 17:31:02 10° N
CZ-2D R/B 4.0 17:23:03 10° SE 17:26:22 29° ENE 17:29:42 10° N
Cosmos 44 3.9 17:22:21 10° SW 17:26:45 52° NW 17:31:27 10° NNE
Cosmos 1340 2.7 17:23:43 10° N 17:27:26 54° ENE 17:31:08 10° SSE
Okean O Rocket 2.3 17:23:15 10° S 17:27:33 59° W 17:31:52 10° NNW
Cosmos 2228 3.7 17:23:52 10° SSW 17:28:03 58° W 17:32:18 10° N
SAR-Lupe-1 4.3 17:24:51 10° NNE 17:28:19 46° E 17:31:43 10° S
Cosmos 1726 Rocket 3.7 17:24:31 10° SSW 17:28:52 78° W 17:33:17 10° N
CZ-4 R/B 2.3 17:26:05 10° ESE 17:29:14 24° ENE 17:32:23 10° NNE
SL-4 R/B 2.9 17:31:11 10° NW 17:34:18 28° N 17:36:33 16° ENE
Aureole 3 2.5 17:31:35 10° S 17:34:39 73° E 17:37:37 10° NNE
Cosmos 1346 Rocket 3.4 17:31:36 10° N 17:35:14 33° ENE 17:38:51 10° SE
Cosmos 2058 3.5 17:32:20 10° N 17:36:02 32° ENE 17:39:44 10° SE
Cosmos 1980 Rocket 3.4 17:32:24 10° SSE 17:36:28 21° E 17:39:22 14° ENE
Cosmos 1992 Rocket 4.4 17:33:24 10° S 17:38:15 41° ESE 17:43:07 10° NE
Cosmos 2297 Rocket 2.2 17:33:21 10° NNW 17:39:03 85° ENE 17:44:44 10° SSE
In-Cosmos 22 Rocket 4.1 17:35:29 10° N 17:40:52 71° ENE 17:46:21 10° SSE
PSLV R/B 4.2 17:36:51 10° NNE 17:40:53 45° E 17:44:50 10° S
CZ-2C R/B 3.7 17:37:36 10° SE 17:42:54 39° ENE 17:48:03 10° N
Cosmos 1315 Rocket 3.4 17:41:37 10° SSE 17:45:11 33° E 17:48:49 10° NNE
Cosmos 1553 Rocket 4.0 17:42:46 10° S 17:49:04 72° E 17:55:20 10° NNE
Cosmos 220 Rocket 4.1 17:46:33 10° S 17:50:48 56° ESE 17:55:09 10° NNE
Meteor 2-15 4.4 17:46:43 10° S 17:52:44 61° E 17:58:46 10° NNE
BREEZE-M R/B 3.9 17:50:55 10° WNW 17:54:41 51° NNE 17:59:00 21° E
Meteor 2-10 Rocket 3.5 17:49:46 10° S 17:54:57 58° E 17:59:58 10° NNE
USA 305 3.1 17:51:48 10° NW 17:56:03 55° NNE 17:58:11 27° E
SKYMED 2 3.5 17:52:35 10° NNE 17:56:57 85° ESE 18:01:18 10° SSW
Cosmos 1455 2.4 17:53:25 10° SSE 17:57:01 44° E 18:00:40 10° NNE
Cosmos 2360 4.4 17:54:00 10° S 17:59:27 47° ESE 18:04:36 11° NE
SeaSat 1 3.7 18:00:38 21° ENE 18:01:14 22° NE 18:04:58 10° N
NOSS 3-4 (A) 4.5 17:55:47 10° NNW 18:02:03 36° NE 18:05:39 24° E
NOSS 3-4 (C) 4.5 17:55:53 10° NNW 18:02:09 36° NE 18:05:43 24° E
USA 306 3.0 17:58:19 10° NW 18:02:35 60° NNE 18:04:25 31° E
H-2A R/B 2.6 17:58:21 10° SE 18:03:22 40° ENE 18:08:25 10° N
Okean-O 2.5 18:00:19 10° SSE 18:04:43 69° ENE 18:09:08 10° N
MOS 1 Rocket 3.7 18:04:57 10° NNE 18:09:28 41° E 18:14:13 10° SSE
Cosmos 2278 4.1 18:04:27 10° S 18:09:44 41° ESE 18:12:45 23° NE
NOSS 3-3 (A) 3.8 18:04:49 10° SSW 18:10:34 78° SE 18:16:10 14° NE
NOSS 3-3 (C) 3.8 18:04:56 10° SSW 18:10:41 77° SE 18:16:14 15° NE
Aureole 3 Rocket 4.2 18:06:44 10° SSW 18:10:44 52° WNW 18:16:18 10° N
Cosmos 2219 4.1 18:06:59 10° NW 18:12:33 50° WSW 18:18:04 10° S
USA 215 4.3 18:10:10 20° NE 18:13:36 31° N 18:19:10 10° NW
Cosmos 1745 Rocket 3.9 18:10:16 10° N 18:16:36 84° E 18:22:59 10° S
Cosmos 44 Rocket 3.3 18:13:30 10° SSW 18:18:09 57° ESE 18:19:58 35° ENE
Lacrosse 5 3.4 18:15:01 10° NW 18:18:52 21° NNE 18:20:11 19° NNE
GEOS 3 Rocket 4.2 18:17:20 33° E 18:18:55 41° NE 18:23:56 10° NNW
ARGOS 3.5 18:17:21 31° ESE 18:19:13 41° ENE 18:24:17 10° N
Cosmos 1408 2.5 18:16:00 10° N 18:19:40 83° W 18:23:21 10° S
Cosmos 2082 3.6 18:14:10 10° NNW 18:19:56 83° ENE 18:25:40 10° SSE
ATLAS 2AS CENTAUR R/B 3.4 18:17:08 10° NNW 18:24:07 38° NE 18:26:17 32° ENE
Cosmos 968 Rocket 4.1 18:20:04 10° NNW 18:25:10 56° WSW 18:30:11 10° S
Cosmos 1689 Rocket 3.9 18:22:58 10° N 18:25:35 31° WNW 18:28:11 10° SW
FALCON 9 DEB 4.3 18:30:33 10° NW 18:32:59 33° N 18:32:59 33° N
Cosmos 1076 Rocket 3.5 18:29:49 10° N 18:34:06 80° W 18:38:20 10° S
Cosmos 2369 3.7 18:28:23 10° SSW 18:34:07 86° WNW 18:39:11 14° NNE
Cosmos 1892 4.5 18:32:42 10° NNW 18:36:14 33° W 18:39:44 10° SSW
CSL-04 Rocket 3.6 18:35:00 10° SSE 18:40:32 81° ENE 18:46:04 10° NNW
Cosmos 2227 Rocket 3.7 18:38:15 10° NW 18:43:23 37° WSW 18:48:30 10° S
COSMO-SKYMED 1 4.4 18:41:02 10° N 18:44:51 30° WNW 18:48:39 10° SW
Cosmos 2263 Rocket 2.8 18:40:28 10° NNW 18:45:08 38° NE 18:45:08 38° NE
Cosmos 1709 Rocket 3.9 18:39:43 10° N 18:46:08 81° E 18:52:32 10° S
USA 307 2.9 18:42:05 10° WNW 18:46:21 71° SW 18:46:28 70° SSW
CZ-4C R/B 3.7 18:42:46 10° NNW 18:48:56 32° NE 18:49:38 32° NE
USA 308 3.1 18:47:04 10° WNW 18:51:15 65° SW 18:51:15 65° SW
Cosmos 1825 2.9 18:48:08 10° NNW 18:51:50 52° W 18:52:23 47° SW
Cosmos 1697 Rocket 3.5 18:50:56 10° SW 18:56:23 50° WNW 19:01:26 12° NNE
YAOGAN 1 3.7 18:52:34 10° S 18:56:40 42° W 19:00:48 10° NNW
CZ-4 R/B 3.4 19:00:54 10° SSW 19:04:11 26° W 19:07:28 10° NW
Milstar 3 4.4 19:03:39 10° SW 19:08:23 20° S 19:09:47 19° S
Cosmos 2315 Rocket 4.0 19:03:38 10° SSW 19:09:49 78° W 19:16:04 10° N
Atlas Centaur 2 4.1 19:03:46 10° WSW 19:10:48 30° S 19:12:40 27° SSE
SL-4 R/B 3.9 19:10:34 10° WNW 19:12:08 24° NW 19:12:08 24° NW
Cosmos 1980 Rocket 2.6 19:14:24 10° SW 19:19:58 60° WNW 19:21:13 48° NNW
SeaSat 1 3.9 19:40:26 34° NW 19:40:26 34° NW 19:43:16 10° NNW
H-2A R/B 3.8 19:38:07 10° SSW 19:42:50 30° W 19:47:37 10° NNW
NOSS 3-4 (A) 4.1 19:46:26 10° NW 19:53:07 67° WSW 19:53:07 67° WSW
NOSS 3-4 (C) 4.0 19:46:32 10° NW 19:53:11 67° WSW 19:53:11 67° WSW
USA 215 4.0 19:57:31 44° NNW 19:57:31 44° NNW 20:02:10 10° NW
Lacrosse 5 4.2 19:57:58 10° NW 19:59:23 18° NW 19:59:23 18° NW
ATLAS 2AS CENTAUR R/B 3.5 20:08:13 10° NW 20:13:44 48° WNW 20:13:44 48° WNW
Cosmos 2263 Rocket 4.4 20:24:36 10° NW 20:26:50 21° WNW 20:26:50 21° WNW
CZ-4C R/B 4.0 20:30:55 10° NW 20:34:49 37° NW 20:34:49 37° NW
